START_TIME,STEP,MOV.,M34,t_acc.,L5,t_acc.,L18,t_acc.,L14,t_acc.
1979-03-01 12:00:14.160 ,4,1,0.,12.0,0.,12.0,0.,12.0,0.,12.0
1979-03-01 12:00:26.160 ,4,1,0.,12.0,0.,12.0,0.,12.0,0.,12.0
1979-03-01 12:00:38.160 ,3,1,0.,12.0,1.,12.0,0.,12.0,0.,12.0
1979-03-01 12:00:50.160 ,3,1,0.,12.0,0.,12.0,0.,12.0,0.,12.0
1979-03-01 12:01:02.160 ,2,1,0.,12.0,0.,12.0,0.,12.0,0.,12.0
1979-03-01 12:01:14.160 ,2,1,0.,12.0,1.,12.0,0.,12.0,0.,12.0
1979-03-01 12:01:26.150 ,1,1,0.,12.0,0.,12.0,0.,12.0,0.,12.0
1979-03-01 12:01:38.160 ,1,1,0.,12.0,0.,12.0,0.,12.0,0.,12.0
1979-03-01 12:01:50.160 ,0,1,0.,12.0,0.,12.0,0.,12.0,0.,12.0
1979-03-01 12:02:02.160 ,0,1,0.,12.0,0.,12.0,0.,12.0,0.,12.0
1979-03-01 12:02:14.150 ,0,1,0.,12.0,0.,12.0,0.,12.0,0.,12.0
1979-03-01 12:02:26.160 ,0,1,0.,12.0,1.,12.0,0.,12.0,0.,12.0
1979-03-01 12:02:38.150 ,1,1,0.,12.0,0.,12.0,0.,12.0,0.,12.0
1979-03-01 12:02:50.160 ,1,1,0.,12.0,1.,12.0,0.,12.0,0.,12.0
1979-03-01 12:03:02.150 ,2,1,0.,12.0,0.,12.0,0.,12.0,0.,12.0
1979-03-01 12:03:14.160 ,2,1,0.,12.0,0.,12.0,0.,12.0,0.,12.0
1979-03-01 12:03:26.150 ,3,1,0.,12.0,0.,12.0,0.,12.0,0.,12.0
1979-03-01 12:03:38.160 ,3,1,0.,12.0,2.,12.0,0.,12.0,0.,12.0
1979-03-01 12:03:50.150 ,4,1,0.,12.0,0.,12.0,0.,12.0,0.,12.0
1979-03-01 12:04:02.160 ,4,1,0.,12.0,0.,12.0,0.,12.0,0.,12.0
1979-03-01 12:04:14.150 ,5,1,0.,12.0,1.,12.0,0.,12.0,0.,12.0
1979-03-01 12:04:26.150 ,5,1,0.,12.0,1.,12.0,0.,12.0,0.,12.0
1979-03-01 12:04:38.150 ,6,1,0.,12.0,0.,12.0,0.,12.0,0.,12.0
1979-03-01 12:04:50.150 ,6,1,0.,12.0,0.,12.0,0.,12.0,0.,12.0
1979-03-01 12:05:02.150 ,7,1,0.,12.0,0.,12.0,0.,12.0,0.,12.0
1979-03-01 12:05:14.150 ,7,1,0.,12.0,11.,12.0,0.,12.0,0.,12.0
1979-03-01 12:05:26.150 ,7,1,0.,12.0,28.,12.0,0.,12.0,0.,12.0
1979-03-01 12:05:38.150 ,7,1,0.,12.0,17.,12.0,0.,12.0,0.,12.0
1979-03-01 12:05:50.150 ,6,1,0.,12.0,15.,12.0,0.,12.0,0.,12.0
1979-03-01 12:06:02.150 ,6,1,0.,12.0,9.,12.0,0.,12.0,0.,12.0
1979-03-01 12:06:14.150 ,5,1,0.,12.0,0.,12.0,0.,12.0,0.,12.0
1979-03-01 12:06:26.150 ,5,1,0.,12.0,0.,12.0,0.,12.0,0.,12.0
1979-03-01 12:06:38.150 ,4,1,0.,12.0,0.,12.0,0.,12.0,0.,12.0
1979-03-01 12:06:50.150 ,4,1,0.,12.0,2.,12.0,0.,12.0,0.,12.0
1979-03-01 12:07:02.150 ,3,1,0.,12.0,0.,12.0,0.,12.0,0.,12.0
1979-03-01 12:07:14.150 ,3,1,0.,12.0,0.,12.0,0.,12.0,0.,12.0
1979-03-01 12:07:26.150 ,2,1,0.,12.0,1.,12.0,0.,12.0,0.,12.0
1979-03-01 12:07:38.150 ,2,1,0.,12.0,0.,12.0,0.,12.0,0.,12.0
1979-03-01 12:07:50.150 ,1,1,0.,12.0,0.,12.0,0.,12.0,0.,12.0
1979-03-01 12:08:02.150 ,1,1,0.,12.0,0.,12.0,0.,12.0,0.,12.0
1979-03-01 12:08:14.150 ,0,1,0.,12.0,0.,12.0,0.,12.0,0.,12.0
1979-03-01 12:08:26.150 ,0,1,0.,12.0,0.,12.0,0.,12.0,0.,12.0
1979-03-01 12:08:38.160 ,0,1,0.,12.0,0.,12.0,0.,12.0,0.,12.0
1979-03-01 12:08:50.160 ,0,1,0.,12.0,0.,12.0,0.,12.0,0.,12.0
1979-03-01 12:09:02.160 ,1,1,0.,12.0,0.,12.0,0.,12.0,0.,12.0
1979-03-01 12:09:14.160 ,1,1,0.,12.0,0.,12.0,0.,12.0,0.,12.0
1979-03-01 12:09:26.160 ,2,1,0.,12.0,1.,12.0,0.,12.0,0.,12.0
1979-03-01 12:09:38.160 ,2,1,0.,12.0,0.,12.0,0.,12.0,0.,12.0
1979-03-01 12:09:50.160 ,3,1,0.,12.0,0.,12.0,0.,12.0,0.,12.0
1979-03-01 12:10:02.160 ,3,1,0.,12.0,0.,12.0,0.,12.0,0.,12.0
1979-03-01 12:10:14.160 ,4,1,0.,12.0,0.,12.0,0.,12.0,0.,12.0
1979-03-01 12:10:26.160 ,4,1,0.,12.0,1.,12.0,0.,12.0,0.,12.0
1979-03-01 12:10:38.160 ,5,1,0.,12.0,0.,12.0,0.,12.0,0.,12.0
1979-03-01 12:10:50.160 ,5,1,0.,12.0,1.,12.0,0.,12.0,0.,12.0
1979-03-01 12:11:02.160 ,6,1,0.,12.0,0.,12.0,0.,12.0,0.,12.0
1979-03-01 12:11:14.160 ,6,1,0.,12.0,0.,12.0,0.,12.0,0.,12.0
1979-03-01 12:11:26.160 ,7,1,0.,12.0,0.,12.0,0.,12.0,0.,12.0
1979-03-01 12:11:38.160 ,7,1,0.,12.0,11.,12.0,0.,12.0,0.,12.0
1979-03-01 12:11:50.160 ,7,1,0.,12.0,17.,12.0,0.,12.0,0.,12.0
1979-03-01 12:12:02.160 ,7,1,0.,12.0,16.,12.0,0.,12.0,0.,12.0
1979-03-01 12:12:14.160 ,6,1,0.,12.0,17.,12.0,0.,12.0,0.,12.0
1979-03-01 12:12:26.160 ,6,1,0.,12.0,6.,12.0,0.,12.0,0.,12.0
1979-03-01 12:12:38.160 ,5,1,0.,12.0,0.,12.0,0.,12.0,0.,12.0
1979-03-01 12:12:50.160 ,5,1,0.,12.0,0.,12.0,0.,12.0,0.,12.0
1979-03-01 12:13:02.160 ,4,1,0.,12.0,1.,12.0,0.,12.0,0.,12.0
1979-03-01 12:13:14.160 ,4,1,0.,12.0,0.,12.0,0.,12.0,0.,12.0
1979-03-01 12:14:14.160 ,0,0,0.,12.0,0.,12.0,0.,12.0,0.,12.0
1979-03-01 12:14:26.160 ,0,0,0.,12.0,0.,12.0,0.,12.0,0.,12.0
1979-03-01 12:14:38.160 ,0,1,0.,12.0,0.,12.0,0.,12.0,0.,12.0
1979-03-01 12:14:50.160 ,0,1,0.,12.0,0.,12.0,0.,12.0,0.,12.0
1979-03-01 12:15:02.160 ,0,1,0.,12.0,0.,12.0,0.,12.0,0.,12.0
1979-03-01 12:15:14.160 ,0,1,0.,12.0,1.,12.0,0.,12.0,0.,12.0
1979-03-01 12:15:26.160 ,1,1,0.,12.0,0.,12.0,0.,12.0,0.,12.0
1979-03-01 12:15:38.160 ,1,1,0.,12.0,0.,12.0,0.,12.0,0.,12.0
1979-03-01 12:15:50.160 ,2,1,0.,12.0,1.,12.0,0.,12.0,0.,12.0
1979-03-01 12:16:02.160 ,2,1,0.,12.0,1.,12.0,0.,12.0,0.,12.0
1979-03-01 12:16:14.160 ,3,1,0.,12.0,1.,12.0,0.,12.0,0.,12.0
1979-03-01 12:16:26.160 ,3,1,0.,12.0,0.,12.0,0.,12.0,0.,12.0
1979-03-01 12:16:38.160 ,4,1,0.,12.0,0.,12.0,0.,12.0,0.,12.0
1979-03-01 12:16:50.160 ,4,1,0.,12.0,0.,12.0,0.,12.0,0.,12.0
1979-03-01 12:17:02.160 ,5,1,0.,12.0,3.,12.0,0.,12.0,0.,12.0
1979-03-01 12:17:14.160 ,5,1,0.,12.0,0.,12.0,0.,12.0,0.,12.0
1979-03-01 12:17:26.150 ,6,1,0.,12.0,0.,12.0,0.,12.0,0.,12.0
1979-03-01 12:17:38.150 ,6,1,0.,12.0,0.,12.0,0.,12.0,0.,12.0
1979-03-01 12:17:50.150 ,7,1,0.,12.0,0.,12.0,0.,12.0,0.,12.0
1979-03-01 12:18:02.150 ,7,1,0.,12.0,18.,12.0,0.,12.0,0.,12.0
1979-03-01 12:18:14.150 ,7,1,0.,12.0,18.,12.0,0.,12.0,0.,12.0
1979-03-01 12:18:26.150 ,7,1,0.,12.0,19.,12.0,0.,12.0,0.,12.0
1979-03-01 12:18:38.150 ,6,1,0.,12.0,15.,12.0,0.,12.0,0.,12.0
1979-03-01 12:18:50.150 ,6,1,0.,12.0,4.,12.0,0.,12.0,1.,12.0
1979-03-01 12:19:02.150 ,5,1,0.,12.0,0.,12.0,0.,12.0,0.,12.0
1979-03-01 12:19:14.150 ,5,1,0.,12.0,0.,12.0,0.,12.0,0.,12.0
1979-03-01 12:19:26.150 ,4,1,0.,12.0,0.,12.0,0.,12.0,0.,12.0
1979-03-01 12:19:38.150 ,4,1,0.,12.0,1.,12.0,0.,12.0,0.,12.0
1979-03-01 12:19:50.150 ,3,1,0.,12.0,1.,12.0,0.,12.0,0.,12.0
1979-03-01 12:20:02.150 ,3,1,0.,12.0,0.,12.0,0.,12.0,0.,12.0
1979-03-01 12:20:14.150 ,2,1,0.,12.0,0.,12.0,0.,12.0,0.,12.0
1979-03-01 12:20:26.150 ,2,1,0.,12.0,0.,12.0,0.,12.0,0.,12.0
1979-03-01 12:20:38.150 ,1,1,0.,12.0,0.,12.0,0.,12.0,0.,12.0
1979-03-01 12:20:50.150 ,1,1,0.,12.0,0.,12.0,0.,12.0,0.,12.0
1979-03-01 12:21:02.150 ,0,1,0.,12.0,0.,12.0,0.,12.0,0.,12.0
1979-03-01 12:21:14.150 ,0,1,0.,12.0,0.,12.0,0.,12.0,0.,12.0
1979-03-01 12:21:26.150 ,0,1,0.,12.0,0.,12.0,0.,12.0,0.,12.0
1979-03-01 12:21:38.150 ,0,1,0.,12.0,1.,12.0,0.,12.0,0.,12.0
1979-03-01 12:21:50.150 ,1,1,0.,12.0,0.,12.0,0.,12.0,0.,12.0
1979-03-01 12:22:02.150 ,1,1,0.,12.0,0.,12.0,0.,12.0,0.,12.0
1979-03-01 12:22:14.150 ,2,1,0.,12.0,0.,12.0,0.,12.0,0.,12.0
1979-03-01 12:22:26.150 ,2,1,0.,12.0,0.,12.0,0.,12.0,0.,12.0
1979-03-01 12:22:38.150 ,3,1,0.,12.0,0.,12.0,0.,12.0,1.,12.0
1979-03-01 12:22:50.150 ,3,1,0.,12.0,1.,12.0,0.,12.0,0.,12.0
1979-03-01 12:23:02.150 ,4,1,0.,12.0,0.,12.0,0.,12.0,0.,12.0
1979-03-01 12:23:14.150 ,4,1,0.,12.0,0.,12.0,0.,12.0,0.,12.0
1979-03-01 12:23:26.150 ,5,1,0.,12.0,1.,12.0,0.,12.0,0.,12.0
1979-03-01 12:23:38.150 ,5,1,0.,12.0,0.,12.0,0.,12.0,0.,12.0
1979-03-01 12:23:50.150 ,6,1,0.,12.0,0.,12.0,0.,12.0,0.,12.0
1979-03-01 12:24:02.150 ,6,1,0.,12.0,0.,12.0,0.,12.0,0.,12.0
1979-03-01 12:24:14.150 ,7,1,0.,12.0,0.,12.0,0.,12.0,0.,12.0
1979-03-01 12:24:26.150 ,7,1,0.,12.0,12.,12.0,0.,12.0,0.,12.0
1979-03-01 12:24:38.150 ,7,1,0.,12.0,20.,12.0,0.,12.0,0.,12.0
1979-03-01 12:24:50.150 ,7,1,0.,12.0,32.,12.0,0.,12.0,0.,12.0
1979-03-01 12:25:02.150 ,6,1,0.,12.0,14.,12.0,0.,12.0,0.,12.0
1979-03-01 12:25:14.150 ,6,1,0.,12.0,6.,12.0,0.,12.0,0.,12.0
1979-03-01 12:25:26.150 ,5,1,0.,12.0,0.,12.0,0.,12.0,0.,12.0
1979-03-01 12:25:38.150 ,5,1,0.,12.0,0.,12.0,0.,12.0,0.,12.0
1979-03-01 12:25:50.150 ,4,1,0.,12.0,1.,12.0,0.,12.0,0.,12.0
1979-03-01 12:26:02.150 ,4,1,0.,12.0,1.,12.0,0.,12.0,0.,12.0
1979-03-01 12:26:14.150 ,3,1,0.,12.0,0.,12.0,0.,12.0,0.,12.0
1979-03-01 12:26:26.150 ,3,1,0.,12.0,0.,12.0,0.,12.0,0.,12.0
1979-03-01 12:26:38.150 ,2,1,0.,12.0,1.,12.0,0.,12.0,0.,12.0
1979-03-01 12:26:50.150 ,2,1,0.,12.0,0.,12.0,0.,12.0,0.,12.0
1979-03-01 12:27:02.150 ,1,1,0.,12.0,0.,12.0,0.,12.0,0.,12.0
1979-03-01 12:27:14.150 ,1,1,0.,12.0,0.,12.0,0.,12.0,0.,12.0
1979-03-01 12:27:26.150 ,0,1,0.,12.0,0.,12.0,0.,12.0,0.,12.0
1979-03-01 12:27:38.150 ,0,1,0.,12.0,2.,12.0,0.,12.0,0.,12.0
1979-03-01 12:27:50.150 ,0,1,0.,12.0,2.,12.0,0.,12.0,0.,12.0
1979-03-01 12:28:02.150 ,0,1,0.,12.0,0.,12.0,0.,12.0,0.,12.0
1979-03-01 12:28:14.150 ,1,1,0.,12.0,1.,12.0,0.,12.0,0.,12.0
1979-03-01 12:28:26.150 ,1,1,0.,12.0,0.,12.0,0.,12.0,0.,12.0
1979-03-01 12:28:38.150 ,2,1,0.,12.0,1.,12.0,0.,12.0,0.,12.0
1979-03-01 12:28:50.150 ,2,1,0.,12.0,0.,12.0,0.,12.0,0.,12.0
1979-03-01 12:29:02.150 ,3,1,0.,12.0,0.,12.0,0.,12.0,0.,12.0
1979-03-01 12:29:14.150 ,3,1,0.,12.0,0.,12.0,0.,12.0,0.,12.0
1979-03-01 12:29:26.150 ,4,1,0.,12.0,1.,12.0,0.,12.0,0.,12.0
1979-03-01 12:29:38.150 ,4,1,0.,12.0,2.,12.0,0.,12.0,0.,12.0
1979-03-01 12:29:50.150 ,5,1,0.,12.0,1.,12.0,0.,12.0,0.,12.0
1979-03-01 12:30:02.150 ,5,1,0.,12.0,0.,12.0,0.,12.0,0.,12.0
1979-03-01 12:30:14.150 ,6,1,0.,12.0,0.,12.0,0.,12.0,0.,12.0
1979-03-01 12:30:26.150 ,6,1,0.,12.0,0.,12.0,0.,12.0,0.,12.0
1979-03-01 12:30:38.150 ,7,1,0.,12.0,0.,12.0,0.,12.0,0.,12.0
1979-03-01 12:30:50.150 ,7,1,0.,12.0,12.,12.0,0.,12.0,0.,12.0
1979-03-01 12:31:02.150 ,7,1,0.,12.0,26.,12.0,0.,12.0,0.,12.0
1979-03-01 12:31:14.150 ,7,1,0.,12.0,17.,12.0,0.,12.0,0.,12.0
1979-03-01 12:31:26.150 ,6,1,0.,12.0,18.,12.0,0.,12.0,0.,12.0
1979-03-01 12:31:38.150 ,6,1,0.,12.0,8.,12.0,0.,12.0,0.,12.0
1979-03-01 12:31:50.150 ,5,1,0.,12.0,0.,12.0,0.,12.0,0.,12.0
1979-03-01 12:32:02.150 ,5,1,0.,12.0,0.,12.0,0.,12.0,0.,12.0
1979-03-01 12:32:14.150 ,4,1,0.,12.0,0.,12.0,0.,12.0,0.,12.0
1979-03-01 12:32:26.150 ,4,1,0.,12.0,1.,12.0,0.,12.0,0.,12.0
1979-03-01 12:32:38.150 ,3,1,0.,12.0,0.,12.0,0.,12.0,0.,12.0
1979-03-01 12:32:50.150 ,3,1,0.,12.0,0.,12.0,0.,12.0,0.,12.0
1979-03-01 12:33:02.150 ,2,1,0.,12.0,0.,12.0,0.,12.0,0.,12.0
1979-03-01 12:33:14.150 ,2,1,0.,12.0,1.,12.0,0.,12.0,0.,12.0
1979-03-01 12:33:26.150 ,1,1,0.,12.0,0.,12.0,0.,12.0,0.,12.0
1979-03-01 12:33:38.150 ,1,1,0.,12.0,0.,12.0,0.,12.0,0.,12.0
1979-03-01 12:33:50.150 ,0,1,0.,12.0,1.,12.0,0.,12.0,0.,12.0
1979-03-01 12:34:02.150 ,0,1,0.,12.0,0.,12.0,0.,12.0,0.,12.0
1979-03-01 12:34:14.160 ,0,1,0.,12.0,0.,12.0,0.,12.0,0.,12.0
1979-03-01 12:34:26.160 ,0,1,0.,12.0,0.,12.0,0.,12.0,0.,12.0
1979-03-01 12:34:38.160 ,1,1,0.,12.0,1.,12.0,0.,12.0,0.,12.0
1979-03-01 12:34:50.160 ,1,1,0.,12.0,1.,12.0,0.,12.0,0.,12.0
1979-03-01 12:35:02.160 ,2,1,0.,12.0,0.,12.0,0.,12.0,0.,12.0
1979-03-01 12:35:14.160 ,2,1,0.,12.0,0.,12.0,0.,12.0,0.,12.0
1979-03-01 12:35:26.160 ,3,1,0.,12.0,0.,12.0,0.,12.0,0.,12.0
1979-03-01 12:35:38.160 ,3,1,0.,12.0,0.,12.0,0.,12.0,0.,12.0
1979-03-01 12:35:50.160 ,4,1,0.,12.0,1.,12.0,0.,12.0,0.,12.0
1979-03-01 12:36:02.160 ,4,1,0.,12.0,0.,12.0,0.,12.0,0.,12.0
1979-03-01 12:36:14.160 ,5,1,0.,12.0,1.,12.0,0.,12.0,0.,12.0
1979-03-01 12:36:26.160 ,5,1,0.,12.0,1.,12.0,0.,12.0,0.,12.0
1979-03-01 12:36:38.160 ,6,1,0.,12.0,0.,12.0,0.,12.0,0.,12.0
1979-03-01 12:36:50.160 ,6,1,0.,12.0,0.,12.0,0.,12.0,0.,12.0
1979-03-01 12:37:02.160 ,7,1,0.,12.0,0.,12.0,0.,12.0,0.,12.0
1979-03-01 12:37:14.160 ,7,1,0.,12.0,17.,12.0,0.,12.0,0.,12.0
1979-03-01 12:37:26.160 ,7,1,0.,12.0,16.,12.0,0.,12.0,0.,12.0
1979-03-01 12:37:38.160 ,7,1,0.,12.0,14.,12.0,0.,12.0,0.,12.0
1979-03-01 12:37:50.160 ,6,1,0.,12.0,19.,12.0,0.,12.0,0.,12.0
1979-03-01 12:38:02.160 ,6,1,0.,12.0,5.,12.0,0.,12.0,0.,12.0
1979-03-01 12:38:14.160 ,5,1,0.,12.0,0.,12.0,0.,12.0,0.,12.0
1979-03-01 12:38:26.160 ,5,1,0.,12.0,0.,12.0,0.,12.0,0.,12.0
1979-03-01 12:38:38.160 ,4,1,0.,12.0,1.,12.0,0.,12.0,0.,12.0
1979-03-01 12:38:50.160 ,4,1,0.,12.0,2.,12.0,0.,12.0,0.,12.0
1979-03-01 12:39:02.160 ,3,1,0.,12.0,1.,12.0,0.,12.0,0.,12.0
1979-03-01 12:39:14.160 ,3,1,0.,12.0,0.,12.0,0.,12.0,0.,12.0
1979-03-01 12:39:26.160 ,2,1,0.,12.0,0.,12.0,0.,12.0,0.,12.0
1979-03-01 12:39:38.160 ,2,1,0.,12.0,1.,12.0,0.,12.0,0.,12.0
1979-03-01 12:39:50.160 ,1,1,0.,12.0,0.,12.0,0.,12.0,0.,12.0
1979-03-01 12:40:02.160 ,1,1,0.,12.0,0.,12.0,0.,12.0,0.,12.0
1979-03-01 12:40:14.160 ,0,1,0.,12.0,0.,12.0,0.,12.0,0.,12.0
1979-03-01 12:40:26.160 ,0,1,0.,12.0,0.,12.0,0.,12.0,0.,12.0
1979-03-01 12:40:38.160 ,0,1,0.,12.0,1.,12.0,0.,12.0,0.,12.0
1979-03-01 12:40:50.160 ,0,1,0.,12.0,0.,12.0,0.,12.0,0.,12.0
1979-03-01 12:41:02.160 ,1,1,0.,12.0,1.,12.0,0.,12.0,0.,12.0
1979-03-01 12:41:14.160 ,1,1,0.,12.0,0.,12.0,0.,12.0,0.,12.0
1979-03-01 12:41:26.160 ,2,1,0.,12.0,0.,12.0,0.,12.0,0.,12.0
1979-03-01 12:41:38.160 ,2,1,0.,12.0,0.,12.0,0.,12.0,0.,12.0
1979-03-01 12:41:50.160 ,3,1,0.,12.0,2.,12.0,0.,12.0,0.,12.0
1979-03-01 12:42:02.160 ,3,1,0.,12.0,2.,12.0,0.,12.0,0.,12.0
1979-03-01 12:42:14.160 ,4,1,0.,12.0,1.,12.0,0.,12.0,0.,12.0
1979-03-01 12:42:26.160 ,4,1,0.,12.0,0.,12.0,0.,12.0,0.,12.0
1979-03-01 12:42:38.160 ,5,1,0.,12.0,0.,12.0,0.,12.0,0.,12.0
1979-03-01 12:42:50.160 ,5,1,0.,12.0,1.,12.0,0.,12.0,0.,12.0
1979-03-01 12:43:02.160 ,6,1,0.,12.0,0.,12.0,0.,12.0,0.,12.0
1979-03-01 12:43:14.160 ,6,1,0.,12.0,0.,12.0,0.,12.0,0.,12.0
1979-03-01 12:43:26.160 ,7,1,0.,12.0,0.,12.0,0.,12.0,0.,12.0
1979-03-01 12:43:38.160 ,7,1,0.,12.0,15.,12.0,0.,12.0,0.,12.0
1979-03-01 12:43:50.160 ,7,1,0.,12.0,17.,12.0,0.,12.0,0.,12.0
1979-03-01 12:44:02.160 ,7,1,0.,12.0,20.,12.0,0.,12.0,0.,12.0
1979-03-01 12:44:14.160 ,6,1,0.,12.0,25.,12.0,0.,12.0,0.,12.0
1979-03-01 12:44:26.160 ,6,1,0.,12.0,5.,12.0,0.,12.0,0.,12.0
1979-03-01 12:44:38.160 ,5,1,0.,12.0,1.,12.0,0.,12.0,0.,12.0
1979-03-01 12:44:50.160 ,5,1,0.,12.0,0.,12.0,0.,12.0,0.,12.0
1979-03-01 12:45:02.160 ,4,1,0.,12.0,0.,12.0,0.,12.0,0.,12.0
1979-03-01 12:45:14.160 ,4,1,0.,12.0,0.,12.0,0.,12.0,0.,12.0
1979-03-01 12:45:26.160 ,3,1,0.,12.0,0.,12.0,0.,12.0,0.,12.0
1979-03-01 12:45:38.160 ,3,1,0.,12.0,1.,12.0,0.,12.0,0.,12.0
1979-03-01 12:45:50.160 ,2,1,0.,12.0,2.,12.0,0.,12.0,0.,12.0
1979-03-01 12:46:02.160 ,2,1,0.,12.0,0.,12.0,0.,12.0,0.,12.0
1979-03-01 12:46:14.160 ,1,1,0.,12.0,0.,12.0,0.,12.0,0.,12.0
1979-03-01 12:46:26.160 ,1,1,0.,12.0,1.,12.0,0.,12.0,0.,12.0
1979-03-01 12:46:38.160 ,0,1,0.,12.0,2.,12.0,0.,12.0,0.,12.0
1979-03-01 12:46:50.160 ,0,1,0.,12.0,0.,12.0,0.,12.0,0.,12.0
1979-03-01 12:47:02.160 ,0,1,0.,12.0,1.,12.0,0.,12.0,0.,12.0
1979-03-01 12:47:14.160 ,0,1,0.,12.0,0.,12.0,0.,12.0,0.,12.0
1979-03-01 12:47:26.160 ,1,1,0.,12.0,0.,12.0,0.,12.0,0.,12.0
1979-03-01 12:47:38.160 ,1,1,0.,12.0,0.,12.0,0.,12.0,0.,12.0
1979-03-01 12:47:50.160 ,2,1,0.,12.0,0.,12.0,0.,12.0,0.,12.0
1979-03-01 12:48:02.160 ,2,1,0.,12.0,1.,12.0,0.,12.0,0.,12.0
1979-03-01 12:48:14.160 ,3,1,0.,12.0,0.,12.0,0.,12.0,0.,12.0
1979-03-01 12:48:26.160 ,3,1,0.,12.0,0.,12.0,0.,12.0,0.,12.0
1979-03-01 12:48:38.160 ,4,1,0.,12.0,2.,12.0,0.,12.0,0.,12.0
1979-03-01 12:48:50.160 ,4,1,0.,12.0,2.,12.0,0.,12.0,0.,12.0
1979-03-01 12:49:02.160 ,5,1,0.,12.0,1.,12.0,0.,12.0,0.,12.0
1979-03-01 12:49:14.160 ,5,1,0.,12.0,0.,12.0,0.,12.0,0.,12.0
1979-03-01 12:49:26.160 ,6,1,0.,12.0,0.,12.0,0.,12.0,0.,12.0
1979-03-01 12:49:38.160 ,6,1,0.,12.0,2.,12.0,0.,12.0,0.,12.0
1979-03-01 12:49:50.160 ,7,1,0.,12.0,0.,12.0,0.,12.0,0.,12.0
1979-03-01 12:50:02.160 ,7,1,0.,12.0,9.,12.0,0.,12.0,0.,12.0
1979-03-01 12:50:14.160 ,7,1,0.,12.0,18.,12.0,0.,12.0,0.,12.0
1979-03-01 12:50:26.160 ,7,1,0.,12.0,22.,12.0,0.,12.0,0.,12.0
1979-03-01 12:50:38.160 ,6,1,0.,12.0,17.,12.0,0.,12.0,0.,12.0
1979-03-01 12:50:50.160 ,6,1,0.,12.0,7.,12.0,0.,12.0,0.,12.0
1979-03-01 12:51:02.160 ,5,1,0.,12.0,1.,12.0,0.,12.0,0.,12.0
1979-03-01 12:51:14.160 ,5,1,0.,12.0,0.,12.0,0.,12.0,0.,12.0
1979-03-01 12:51:26.160 ,4,1,0.,12.0,0.,12.0,0.,12.0,0.,12.0
1979-03-01 12:51:38.160 ,4,1,0.,12.0,1.,12.0,0.,12.0,0.,12.0
1979-03-01 12:51:50.160 ,3,1,0.,12.0,0.,12.0,0.,12.0,0.,12.0
1979-03-01 12:52:02.160 ,3,1,0.,12.0,0.,12.0,0.,12.0,0.,12.0
1979-03-01 12:52:14.160 ,2,1,0.,12.0,1.,12.0,0.,12.0,0.,12.0
1979-03-01 12:52:26.160 ,2,1,0.,12.0,1.,12.0,0.,12.0,0.,12.0
1979-03-01 12:52:38.160 ,1,1,0.,12.0,0.,12.0,0.,12.0,0.,12.0
1979-03-01 12:52:50.160 ,1,1,0.,12.0,2.,12.0,0.,12.0,0.,12.0
1979-03-01 12:53:02.160 ,0,1,0.,12.0,0.,12.0,0.,12.0,0.,12.0
1979-03-01 12:53:14.160 ,0,1,0.,12.0,0.,12.0,0.,12.0,0.,12.0
1979-03-01 12:53:26.160 ,0,1,0.,12.0,0.,12.0,0.,12.0,0.,12.0
1979-03-01 12:53:38.160 ,0,1,0.,12.0,0.,12.0,0.,12.0,0.,12.0
1979-03-01 12:53:50.160 ,1,1,0.,12.0,1.,12.0,0.,12.0,0.,12.0
1979-03-01 12:54:02.160 ,1,1,0.,12.0,1.,12.0,0.,12.0,0.,12.0
1979-03-01 12:54:14.160 ,2,1,0.,12.0,0.,12.0,0.,12.0,0.,12.0
1979-03-01 12:54:26.160 ,2,1,0.,12.0,1.,12.0,0.,12.0,0.,12.0
1979-03-01 12:54:38.160 ,3,1,0.,12.0,0.,12.0,0.,12.0,0.,12.0
1979-03-01 12:54:50.160 ,3,1,0.,12.0,0.,12.0,0.,12.0,0.,12.0
1979-03-01 12:55:02.160 ,4,1,0.,12.0,0.,12.0,0.,12.0,0.,12.0
1979-03-01 12:55:14.160 ,4,1,0.,12.0,0.,12.0,0.,12.0,0.,12.0
1979-03-01 12:55:26.160 ,5,1,0.,12.0,0.,12.0,0.,12.0,0.,12.0
1979-03-01 12:55:38.160 ,5,1,0.,12.0,0.,12.0,0.,12.0,0.,12.0
1979-03-01 12:55:50.160 ,6,1,0.,12.0,0.,12.0,0.,12.0,0.,12.0
1979-03-01 12:56:02.160 ,6,1,0.,12.0,0.,12.0,0.,12.0,0.,12.0
1979-03-01 12:56:14.160 ,7,1,0.,12.0,0.,12.0,0.,12.0,0.,12.0
1979-03-01 12:56:26.160 ,7,1,0.,12.0,7.,12.0,0.,12.0,0.,12.0
1979-03-01 12:56:38.160 ,7,1,0.,12.0,25.,12.0,0.,12.0,0.,12.0
1979-03-01 12:56:50.160 ,7,1,0.,12.0,17.,12.0,0.,12.0,0.,12.0
1979-03-01 12:57:02.160 ,6,1,0.,12.0,26.,12.0,0.,12.0,0.,12.0
1979-03-01 12:57:14.160 ,6,1,0.,12.0,11.,12.0,0.,12.0,0.,12.0
1979-03-01 12:57:26.160 ,5,1,0.,12.0,0.,12.0,0.,12.0,0.,12.0
1979-03-01 12:57:38.160 ,5,1,0.,12.0,0.,12.0,0.,12.0,0.,12.0
1979-03-01 12:57:50.160 ,4,1,0.,12.0,0.,12.0,0.,12.0,0.,12.0
1979-03-01 12:58:02.160 ,4,1,0.,12.0,1.,12.0,0.,12.0,0.,12.0
1979-03-01 12:58:14.160 ,3,1,0.,12.0,0.,12.0,0.,12.0,0.,12.0
1979-03-01 12:58:26.160 ,3,1,0.,12.0,0.,12.0,0.,12.0,0.,12.0
1979-03-01 12:58:38.160 ,2,1,0.,12.0,0.,12.0,0.,12.0,0.,12.0
1979-03-01 12:58:50.160 ,2,1,0.,12.0,1.,12.0,0.,12.0,0.,12.0
1979-03-01 12:59:02.160 ,1,1,0.,12.0,1.,12.0,0.,12.0,0.,12.0
1979-03-01 12:59:14.160 ,1,1,0.,12.0,0.,12.0,0.,12.0,0.,12.0
1979-03-01 12:59:26.160 ,0,1,0.,12.0,0.,12.0,0.,12.0,0.,12.0
1979-03-01 12:59:38.160 ,0,1,0.,12.0,2.,12.0,0.,12.0,0.,12.0
1979-03-01 12:59:50.160 ,0,1,0.,12.0,0.,12.0,0.,12.0,0.,12.0
1979-03-01 13:00:02.160 ,0,1,0.,12.0,3.,12.0,0.,12.0,0.,12.0
1979-03-01 13:00:14.160 ,1,1,0.,12.0,1.,12.0,0.,12.0,0.,12.0
1979-03-01 13:00:26.160 ,1,1,0.,12.0,0.,12.0,0.,12.0,0.,12.0
1979-03-01 13:00:38.160 ,2,1,0.,12.0,0.,12.0,0.,12.0,0.,12.0
1979-03-01 13:00:50.160 ,2,1,0.,12.0,0.,12.0,0.,12.0,0.,12.0
1979-03-01 13:01:02.160 ,3,1,0.,12.0,0.,12.0,0.,12.0,0.,12.0
1979-03-01 13:01:14.160 ,3,1,0.,12.0,0.,12.0,0.,12.0,0.,12.0
1979-03-01 13:01:26.160 ,4,1,0.,12.0,0.,12.0,0.,12.0,0.,12.0
1979-03-01 13:01:38.160 ,4,1,0.,12.0,1.,12.0,0.,12.0,0.,12.0
1979-03-01 13:01:50.160 ,5,1,0.,12.0,0.,12.0,0.,12.0,0.,12.0
1979-03-01 13:02:02.160 ,5,1,0.,12.0,0.,12.0,0.,12.0,0.,12.0
1979-03-01 13:02:14.160 ,6,1,0.,12.0,0.,12.0,0.,12.0,0.,12.0
1979-03-01 13:02:26.160 ,6,1,0.,12.0,0.,12.0,0.,12.0,0.,12.0
1979-03-01 13:02:38.160 ,7,1,0.,12.0,0.,12.0,0.,12.0,0.,12.0
1979-03-01 13:02:50.160 ,7,1,0.,12.0,14.,12.0,0.,12.0,0.,12.0
1979-03-01 13:03:02.160 ,7,1,0.,12.0,17.,12.0,0.,12.0,0.,12.0
1979-03-01 13:03:14.160 ,7,1,0.,12.0,15.,12.0,0.,12.0,0.,12.0
1979-03-01 13:03:26.160 ,6,1,0.,12.0,22.,12.0,0.,12.0,0.,12.0
1979-03-01 13:03:38.160 ,6,1,0.,12.0,7.,12.0,0.,12.0,0.,12.0
1979-03-01 13:03:50.160 ,5,1,0.,12.0,0.,12.0,0.,12.0,0.,12.0
1979-03-01 13:04:02.160 ,5,1,0.,12.0,0.,12.0,0.,12.0,0.,12.0
1979-03-01 13:04:14.160 ,4,1,0.,12.0,0.,12.0,0.,12.0,0.,12.0
1979-03-01 13:04:26.160 ,4,1,0.,12.0,0.,12.0,0.,12.0,0.,12.0
1979-03-01 13:04:38.160 ,3,1,0.,12.0,0.,12.0,0.,12.0,0.,12.0
1979-03-01 13:04:50.160 ,3,1,0.,12.0,1.,12.0,0.,12.0,0.,12.0
1979-03-01 13:05:02.160 ,2,1,0.,12.0,0.,12.0,0.,12.0,0.,12.0
1979-03-01 13:05:14.160 ,2,1,0.,12.0,1.,12.0,0.,12.0,0.,12.0
1979-03-01 13:05:26.160 ,1,1,0.,12.0,0.,12.0,0.,12.0,0.,12.0
1979-03-01 13:05:38.160 ,1,1,0.,12.0,1.,12.0,0.,12.0,0.,12.0
1979-03-01 13:05:50.160 ,0,1,0.,12.0,1.,12.0,0.,12.0,0.,12.0
1979-03-01 13:06:02.160 ,0,1,0.,12.0,0.,12.0,0.,12.0,0.,12.0
1979-03-01 13:06:14.160 ,0,1,0.,12.0,0.,12.0,0.,12.0,0.,12.0
1979-03-01 13:06:26.160 ,0,1,0.,12.0,3.,12.0,0.,12.0,0.,12.0
1979-03-01 13:06:38.160 ,1,1,0.,12.0,0.,12.0,0.,12.0,0.,12.0
1979-03-01 13:06:50.160 ,1,1,0.,12.0,1.,12.0,0.,12.0,0.,12.0
1979-03-01 13:07:02.160 ,2,1,0.,12.0,0.,12.0,0.,12.0,0.,12.0
1979-03-01 13:07:14.160 ,2,1,0.,12.0,0.,12.0,0.,12.0,0.,12.0
1979-03-01 13:07:26.160 ,3,1,0.,12.0,0.,12.0,0.,12.0,0.,12.0
1979-03-01 13:07:38.160 ,3,1,0.,12.0,0.,12.0,0.,12.0,0.,12.0
1979-03-01 13:07:50.160 ,4,1,0.,12.0,0.,12.0,0.,12.0,0.,12.0
1979-03-01 13:08:02.160 ,4,1,0.,12.0,1.,12.0,0.,12.0,0.,12.0
1979-03-01 13:08:14.160 ,5,1,0.,12.0,1.,12.0,0.,12.0,0.,12.0
1979-03-01 13:08:26.160 ,5,1,0.,12.0,0.,12.0,0.,12.0,0.,12.0
1979-03-01 13:08:38.160 ,6,1,0.,12.0,0.,12.0,0.,12.0,0.,12.0
1979-03-01 13:08:50.160 ,6,1,0.,12.0,0.,12.0,0.,12.0,0.,12.0
1979-03-01 13:09:02.160 ,7,1,0.,12.0,0.,12.0,0.,12.0,0.,12.0
1979-03-01 13:09:14.160 ,7,1,0.,12.0,18.,12.0,0.,12.0,0.,12.0
1979-03-01 13:09:26.160 ,7,1,0.,12.0,25.,12.0,0.,12.0,0.,12.0
1979-03-01 13:09:38.160 ,7,1,0.,12.0,21.,12.0,0.,12.0,0.,12.0
1979-03-01 13:09:50.160 ,6,1,0.,12.0,17.,12.0,0.,12.0,0.,12.0
1979-03-01 13:10:02.160 ,6,1,0.,12.0,4.,12.0,0.,12.0,0.,12.0
1979-03-01 13:10:14.160 ,5,1,0.,12.0,0.,12.0,0.,12.0,0.,12.0
1979-03-01 13:10:26.160 ,5,1,0.,12.0,0.,12.0,0.,12.0,0.,12.0
1979-03-01 13:10:38.160 ,4,1,0.,12.0,0.,12.0,0.,12.0,0.,12.0
1979-03-01 13:10:50.160 ,4,1,0.,12.0,0.,12.0,0.,12.0,0.,12.0
1979-03-01 13:11:02.160 ,3,1,0.,12.0,0.,12.0,0.,12.0,0.,12.0
1979-03-01 13:11:14.160 ,3,1,0.,12.0,0.,12.0,0.,12.0,0.,12.0
1979-03-01 13:11:26.160 ,2,1,0.,12.0,0.,12.0,0.,12.0,0.,12.0
1979-03-01 13:11:38.160 ,2,1,0.,12.0,0.,12.0,0.,12.0,0.,12.0
1979-03-01 13:11:50.160 ,1,1,0.,12.0,0.,12.0,0.,12.0,0.,12.0
1979-03-01 13:12:02.160 ,1,1,0.,12.0,0.,12.0,0.,12.0,0.,12.0
1979-03-01 13:12:14.160 ,0,1,0.,12.0,0.,12.0,0.,12.0,0.,12.0
1979-03-01 13:12:26.160 ,0,1,0.,12.0,1.,12.0,0.,12.0,0.,12.0
1979-03-01 13:12:38.160 ,0,1,0.,12.0,1.,12.0,0.,12.0,0.,12.0
1979-03-01 13:12:50.160 ,0,1,0.,12.0,1.,12.0,0.,12.0,0.,12.0
1979-03-01 13:13:02.160 ,1,1,0.,12.0,1.,12.0,0.,12.0,0.,12.0
1979-03-01 13:13:14.160 ,1,1,0.,12.0,0.,12.0,0.,12.0,0.,12.0
1979-03-01 13:13:26.160 ,2,1,0.,12.0,0.,12.0,0.,12.0,0.,12.0
1979-03-01 13:13:38.160 ,2,1,0.,12.0,0.,12.0,0.,12.0,0.,12.0
1979-03-01 13:13:50.160 ,3,1,0.,12.0,0.,12.0,0.,12.0,0.,12.0
1979-03-01 13:14:02.160 ,3,1,0.,12.0,0.,12.0,0.,12.0,0.,12.0
1979-03-01 13:14:14.160 ,4,1,0.,12.0,1.,12.0,0.,12.0,0.,12.0
1979-03-01 13:14:26.160 ,4,1,0.,12.0,0.,12.0,0.,12.0,0.,12.0
1979-03-01 13:14:38.160 ,5,1,0.,12.0,1.,12.0,0.,12.0,0.,12.0
1979-03-01 13:14:50.160 ,5,1,0.,12.0,0.,12.0,0.,12.0,0.,12.0
1979-03-01 13:15:02.160 ,6,1,0.,12.0,0.,12.0,0.,12.0,0.,12.0
1979-03-01 13:15:14.160 ,6,1,0.,12.0,0.,12.0,0.,12.0,0.,12.0
1979-03-01 13:15:26.160 ,7,1,0.,12.0,0.,12.0,0.,12.0,0.,12.0
1979-03-01 13:15:38.160 ,7,1,0.,12.0,16.,12.0,0.,12.0,0.,12.0
1979-03-01 13:15:50.160 ,7,1,0.,12.0,17.,12.0,0.,12.0,0.,12.0
1979-03-01 13:16:02.160 ,7,1,0.,12.0,21.,12.0,0.,12.0,0.,12.0
1979-03-01 13:16:14.160 ,6,1,0.,12.0,21.,12.0,0.,12.0,0.,12.0
1979-03-01 13:16:26.160 ,6,1,0.,12.0,4.,12.0,0.,12.0,0.,12.0
1979-03-01 13:16:38.160 ,5,1,0.,12.0,0.,12.0,0.,12.0,0.,12.0
1979-03-01 13:16:50.160 ,5,1,0.,12.0,0.,12.0,0.,12.0,0.,12.0
1979-03-01 13:17:02.160 ,4,1,0.,12.0,1.,12.0,0.,12.0,0.,12.0
1979-03-01 13:17:14.160 ,4,1,0.,12.0,0.,12.0,0.,12.0,0.,12.0
1979-03-01 13:17:26.160 ,3,1,0.,12.0,1.,12.0,0.,12.0,0.,12.0
1979-03-01 13:17:38.160 ,3,1,0.,12.0,0.,12.0,0.,12.0,0.,12.0
1979-03-01 13:17:50.160 ,2,1,0.,12.0,1.,12.0,0.,12.0,0.,12.0